WetterOnline ( https://www.wetteronline.de )

Wetter aktuell Mittelndorf

Aktuelles Wetter: Lichtenhain/Mittelndorf (352m)

6-stündlich | Neueste Meldungen
Ortszeit Temperatur Wetter
Do, 18.08. 8:00 21.2° C leicht bewölkt
Do, 18.08. 2:00 19.3° C wolkig
Mi, 17.08. 20:00 28.1° C wolkig
Mi, 17.08. 14:00 30.2° C wolkig
Mi, 17.08. 8:00 19.2° C leicht bewölkt
Mi, 17.08. 2:00 20.5° C bedeckt
Di, 16.08. 20:00 26.4° C leicht bewölkt
Di, 16.08. 14:00 28.6° C leicht bewölkt
Ortszeit Temperatur Wetter
Do, 18.08. 9:30 25.1° C bewölkt
Do, 18.08. 9:20 25.1° C bewölkt
Do, 18.08. 9:10 24.8° C wolkig
Do, 18.08. 9:00 24.4° C leicht bewölkt
Do, 18.08. 8:50 24.4° C leicht bewölkt
Do, 18.08. 8:40 24.9° C leicht bewölkt
Do, 18.08. 8:30 21.6° C wolkig
Do, 18.08. 8:00 21.2° C leicht bewölkt
Do, 18.08. 7:30 20.4° C wolkig
Do, 18.08. 7:00 18.1° C wolkig
Do, 18.08. 6:30 17.7° C wolkig
Ortszeit Relative Feuchte Sichtweite
Do, 18.08. 8:00 70% 55 km
Do, 18.08. 2:00 67% 55 km
Mi, 17.08. 20:00 37% 65 km
Mi, 17.08. 14:00 32% 35 km
Mi, 17.08. 8:00 77% 50 km
Mi, 17.08. 2:00 65% 55 km
Di, 16.08. 20:00 41% 60 km
Di, 16.08. 14:00 38% 60 km
Ortszeit Relative Feuchte Sichtweite
Do, 18.08. 9:30 51% 45 km
Do, 18.08. 9:20 51% -
Do, 18.08. 9:10 53% -
Do, 18.08. 9:00 55% 50 km
Do, 18.08. 8:50 55% -
Do, 18.08. 8:40 55% -
Do, 18.08. 8:30 65% 45 km
Do, 18.08. 8:00 70% 55 km
Do, 18.08. 7:30 65% 50 km
Do, 18.08. 7:00 73% 40 km
Do, 18.08. 6:30 74% 45 km
Ortszeit Niederschlagsmenge Niederschlagsart
Do, 18.08. 8:00 0.0 l/m2 in 12 Std. -
Do, 18.08. 2:00 0.0 l/m2 in 6 Std. -
Mi, 17.08. 20:00 0.0 l/m2 in 12 Std. -
Mi, 17.08. 14:00 0.0 l/m2 in 6 Std. -
Mi, 17.08. 8:00 0.0 l/m2 in 12 Std. -
Mi, 17.08. 2:00 0.0 l/m2 in 6 Std. -
Di, 16.08. 20:00 0.0 l/m2 in 12 Std. -
Di, 16.08. 14:00 0.0 l/m2 in 6 Std. -
Ortszeit Niederschlagsmenge Niederschlagsart
Do, 18.08. 9:30 0.0 l/m2 in 1 Std. -
Do, 18.08. 9:20 keine Meldung -
Do, 18.08. 9:10 keine Meldung -
Do, 18.08. 9:00 0.0 l/m2 in 1 Std. -
Do, 18.08. 8:50 keine Meldung -
Do, 18.08. 8:40 keine Meldung -
Do, 18.08. 8:30 0.0 l/m2 in 1 Std. -
Do, 18.08. 8:00 0.0 l/m2 in 1 Std. -
Do, 18.08. 7:30 0.0 l/m2 in 1 Std. -
Do, 18.08. 7:00 0.0 l/m2 in 1 Std. -
Do, 18.08. 6:30 0.0 l/m2 in 1 Std. -
Ortszeit Stärke Spitze Richtung
km/h Bft. km/h Grad Sektor
Do, 18.08. 8:00 0 0 14 - -
Do, 18.08. 2:00 2 1 13 240° SW
Mi, 17.08. 20:00 9 2 33 160° S
Mi, 17.08. 14:00 18 3 32 180° S
Mi, 17.08. 8:00 0 0 7 - -
Mi, 17.08. 2:00 4 1 11 290° W
Di, 16.08. 20:00 7 2 32 330° NW
Di, 16.08. 14:00 6 1 17 70° O
Ortszeit Stärke Spitze Richtung
km/h Bft. km/h Grad Sektor
Do, 18.08. 9:30 4 1 7 110° O
Do, 18.08. 9:20 4 1 - 110° O
Do, 18.08. 9:10 4 1 - 120° SO
Do, 18.08. 9:00 4 1 7 180° S
Do, 18.08. 8:50 4 1 - 180° S
Do, 18.08. 8:40 2 1 - 80° O
Do, 18.08. 8:30 4 1 7 180° S
Do, 18.08. 8:00 0 0 11 - -
Do, 18.08. 7:30 7 2 11 90° O
Do, 18.08. 7:00 4 1 14 110° O
Do, 18.08. 6:30 4 1 14 80° O
Ortszeit Untergrenze Bedeckung Gattung
total tief tief mittel hoch
Do, 18.08. 8:00 5700 m 4/8 4/8 - - -
Do, 18.08. 2:00 10500 m 8/8 0/8 - - -
Mi, 17.08. 20:00 10500 m 8/8 0/8 - - -
Mi, 17.08. 14:00 10500 m 8/8 0/8 - - -
Mi, 17.08. 8:00 2700 m 4/8 4/8 - - -
Mi, 17.08. 2:00 3000 m 8/8 8/8 - - -
Di, 16.08. 20:00 2100 m 2/8 2/8 - - -
Di, 16.08. 14:00 1800 m 2/8 2/8 - - -
Ortszeit Bedeckungsgrad in Achtel und Wolkenuntergrenze
Do, 18.08. 9:30 7(5100m)
Do, 18.08. 9:20 7(5100m)
Do, 18.08. 9:10 5
Do, 18.08. 9:00 2(5700m)
Do, 18.08. 8:50 2(5700m)
Do, 18.08. 8:40 4
Do, 18.08. 8:30 6(5700m)
Do, 18.08. 8:00 4(5700m)
Do, 18.08. 7:30 6(6000m)
Do, 18.08. 7:00 3(10500m) 7(12000m)
Do, 18.08. 6:30 5(6000m) 6(12000m)
Ortszeit Luftdruck NN (hPa) Tendenz (hPa in 3 Std.)
Do, 18.08. 8:00 1011 + 0,3
Do, 18.08. 2:00 1011 + 0,5
Mi, 17.08. 20:00 1010 0,0
Mi, 17.08. 14:00 1010 - 0,5
Mi, 17.08. 8:00 1012 + 0,5
Mi, 17.08. 2:00 1011 - 0,1
Di, 16.08. 20:00 1009 + 0,5
Di, 16.08. 14:00 1009 - 0,4
Ortszeit Luftdruck NN (hPa) Tendenz (hPa in 3 Std.)
Do, 18.08. 9:30 1010 + 0,3
Do, 18.08. 9:20 1010 keine Meldung
Do, 18.08. 9:10 1010 keine Meldung
Do, 18.08. 9:00 1010 + 0,3
Do, 18.08. 8:50 1010 keine Meldung
Do, 18.08. 8:40 1010 keine Meldung
Do, 18.08. 8:30 1011 + 0,3
Do, 18.08. 8:00 1011 + 0,3
Do, 18.08. 7:30 1011 + 0,1
Do, 18.08. 7:00 1011 0,0
Do, 18.08. 6:30 1011 - 0,3
Ortszeit Schneehöhe (cm)
Do, 18.08. 8:00 0
Do, 18.08. 2:00 0
Mi, 17.08. 20:00 0
Mi, 17.08. 14:00 0
Mi, 17.08. 8:00 0
Mi, 17.08. 2:00 0
Di, 16.08. 20:00 0
Di, 16.08. 14:00 0
Ortszeit Schneehöhe (cm)
Do, 18.08. 9:30 0
Do, 18.08. 9:20 0
Do, 18.08. 9:10 0
Do, 18.08. 9:00 0
Do, 18.08. 8:50 0
Do, 18.08. 8:40 0
Do, 18.08. 8:30 0
Do, 18.08. 8:00 0
Do, 18.08. 7:30 0
Do, 18.08. 7:00 0
Do, 18.08. 6:30 0
Link zu dieser Seite / Seite empfehlen

Das Wetter in ...